Location: Newark
(45.9167°N, 5.5000°E)
Time: 16:25:14
(UTC+00:00)

ISS - Visible Passes

Search period start: 17 January 2020 00:00
Search period end: 27 January 2020 00:00
Orbit: 415 x 421 km, 51.6° (Epoch: 18 January)

Date Brightness Start Highest point End Pass type
(mag) Time Alt. Az. Time Alt. Az. Time Alt. Az.
19 Jan -1.3 18:11:40 10° S 18:12:28 13° SSE 18:12:28 13° SSE visible
20 Jan -1.2 18:58:47 10° SW 18:59:48 18° SW 18:59:48 18° SW visible
21 Jan -2.9 18:11:04 10° SSW 18:14:05 36° SSE 18:14:05 36° SSE visible
22 Jan -2.2 17:23:35 10° SSW 17:26:18 23° SE 17:28:17 14° E visible
22 Jan -1.6 18:59:31 10° WSW 19:01:13 27° W 19:01:13 27° W visible
23 Jan -3.9 18:11:27 10° WSW 18:14:49 87° SSE 18:15:21 61° ENE visible
24 Jan -3.5 17:23:31 10° SW 17:26:49 56° SSE 17:29:24 15° ENE visible
24 Jan -1.6 19:00:33 10° W 19:02:20 25° WNW 19:02:20 25° WNW visible
25 Jan -3.1 18:12:19 10° W 18:15:35 48° NNW 18:16:20 39° NNE visible
26 Jan -3.6 17:24:08 10° WSW 17:27:29 66° NNW 17:30:18 14° ENE visible
26 Jan -1.4 19:01:37 10° WNW 19:03:14 21° NW 19:03:14 21° NW visible
